Satellite-Ground Cal/Val Site Overpasses Predictions

Prediction of Satellite NPP Overpassing Cal/Val Site: Antarctic Dome C

Ground Cal/Val Site Location: Latitude: -75.10, Longitude: 123.35; Satellite-Ground Site NADIR distance within 100 km.

Table of predicted overpasses for the next 14.0 days since TLE Epoch: 3/11/2023
Interval Starting Time Ending Time Minimum Distance Time Minimum Distance (km)
1 03/11/2023 07:27:03 03/11/2023 07:27:30 03/11/2023 07:27:17 42.30
2 03/13/2023 15:09:34 03/13/2023 15:09:40 03/13/2023 15:09:37 97.77
3 03/14/2023 14:50:34 03/14/2023 14:51:03 03/14/2023 14:50:48 13.30
4 03/16/2023 07:33:25 03/16/2023 07:33:55 03/16/2023 07:33:40 5.15
5 03/19/2023 14:56:58 03/19/2023 14:57:26 03/19/2023 14:57:12 23.36
6 03/20/2023 14:38:16 03/20/2023 14:38:31 03/20/2023 14:38:24 83.53
7 03/21/2023 07:39:49 03/21/2023 07:40:17 03/21/2023 07:40:03 31.20
8 03/22/2023 07:21:06 03/22/2023 07:21:24 03/22/2023 07:21:15 78.96
